Accueil
METAR-TAF:

METAR-TAF

Aéroports :

Carbon County Regional Airport (Buck Davis Field)

Price, Utah, États-Unis

latitude: 39-36-33N, longitude: 110-45-17W, altitude: 1805 m

Observation

Le bulletin a été fait il y a 56 minutes, à 04:53 UTC
Vent 8 kt de nord
Température 6°C
Humidité 65%
Pression 1026 hPa
Visibilité: 16.1 km
Quelques nuages à une hauteur de 5000 ft

METAR: KPUC 280453Z AUTO 36008KT 10SM FEW050 06/00 A3030 RMK AO2 SLP261 T00610000

Heure: 23:49 (05:49 UTC)


TAF: absent

Observations et prévisions météorologiques de plus de 4000 aéroports (messages METAR et TAF).

Les stations disponibles sont représentées par des disques jaunes et rouges sur la carte.

Passer la souris dessus pour voir le nom de la station.

Cliquer dessus pour voir les observations et prévisions météorologiques.

Pour changer de carte: cliquez sur les boutons verts avec une croix noire pour zoomer, sur le bouton vert avec un tiret pour effectuer un zoom arrière, ou sur les flèches vertes pour les cartes adjacentes.


METAR-TAF: